Tracking 25949 objects as of 9-Aug-2022
HD Live streaming from Space Station
objects crossing your sky now

STARLINK-4284

Track STARLINK-4284 now!
10-day predictions
STARLINK-4284 is classified as:


NORAD ID: 53023
Int'l Code: 2022-076AP
Perigee: 355.2 km
Apogee: 358.5 km
Inclination: 53.2 °
Period: 91.5 minutes
Semi major axis: 6727 km
RCS: Unknown
Launch date: July 7, 2022
Source: United States (US)
Launch site: AIR FORCE EASTERN TEST RANGE (AFETR)
aabbcc
Your satellite tracking list
Your tracking list is empty




NASA's NSSDC Master Catalog

Two Line Element Set (TLE):
1 53023U 22076AP  22221.25001157 -.00097605  00000-0 -69842-3 0  9991
2 53023  53.2175 217.7216 0002512  24.9900  97.5229 15.73218277  5640
Source of the keplerian elements: AFSPC